Showing default

IRIDIUM 109, 41919

Orbit data source: Space-Track

IRIDIUM 109, 41919 is a payload satellite owned by Iridium (US) in LEO that was launched on Sat, 14 Jan 2017 UTC via an FALCON 9 launch vehicle from the Air Force Western Test Range (AFWTR). Payloads include a variety of satellites, spacecraft, and rockets equipped with specific instruments for various scientific and technological missions. These include communications satellites like Starlink; space stations such as the ISS; scientific satellites like the Hubble; Earth observation satellites from companies like Planet Labs, Umbra, and HawkEye 360; GPS; miniature CubeSats for education and research; and military/defense satellites.

Loading next visibility...
IRIDIUM 109 details
Identifier
41919, 2017-003C
Orbit
LEO
Last TLE update7 hours ago
Origin
Flag of USIridium (US)
ManufacturerOATK SSG Gilbert
MissionOperational Commercial Communications
Bus & MotorELITEBUS, Unknown motor
Mass860 kg wet, 700 kg dry
Launch date (UTC)
2017-01-14 (8 years ago)
Launch vehicle
FALCON 9
Launch site
Air Force Western Test Range (AFWTR)
Object type
Payload
Rocket body
Debris
Shape & HBRTrap Box + 2 Pan, 9.4 m
Radar Cross Section14.423 m², Large (>1 m²)

Expand to show TLE details & history

TLE from 7 hours ago
0 IRIDIUM 109
1 41919U 17003C   24361.24363759 -.00000105  00000-0 -44700-4 0  9997
2 41919  86.3969 313.2767 0002212  79.8075 280.3370 14.34216889416098
Epoch: 2024-12-26T05:50Z
Definitive object data (Epoch: 2024-12-26T05:50:50.287Z)
Latitude-0.00006°
Longitude130.34134°
Altitude780.437 km
Speed7.464 km/s
True Right ascension20h 53m 06s
True Declination0° 00' 00"
Sunlit
Object was in daylight at TLE epoch
Visualization TLE readout
Latitude79.05652°
Longitude-68.68419°
Altitude789.552 km
Speed7.466 km/s
Apparent Right ascension01h 26m 55s
Apparent Declination32° 22' 20"
Sunlit
Object is in full shadow
Visualization observer readout
Local Sidereal Time12:22:17
Azimuth345.833° N
Elevation-16.179°
Doppler factor1
Orbital elements
Apogee altitude776.217 km
Perigee altitude773.052 km
Semi-major axis7,152.772 km
Eccentricity0.0002212
Inclination86.3969°
RAAN313.2767°
Arg. of periapsis79.8075°
True anomaly280.31206°
Mean anomaly280.337°
Eccentric anomaly280.32453°
Mean motion3.58783 °/min
BSTAR-0.0000447
Orbital period100.34 mins
Loading maneuver chart data...
Loading historical data...
Loading historical data...
Loading historical data...
Loading historical data...
Loading historical data...
Loading historical data...
Loading historical data...

IRIDIUM 109 Visibility forecast

Observer location: undefined°, undefined

Span
Click to sort rows by Start time (UTC) header in descending order
Start Az.
Max El. time (UTC)
Max El. Az.
Max El.
End time (UTC)
End Az.
9 mins2024-12-26 21:01:40.664Z153.554° SSE2024-12-26 21:06:40.664Z71.91° E32.787°2024-12-26 21:10:40.664Z18.879° NNE
6 mins2024-12-26 22:44:40.664Z247.592° W2024-12-26 22:46:40.664Z275.988° WNW19.878°2024-12-26 22:50:40.664Z329.383° NNW
9 mins2024-12-27 09:12:40.664Z356.044° N2024-12-27 09:17:40.664Z204.631° SW44.311°2024-12-27 09:21:40.664Z181.654° SSW
|